SCP
0 0 0 0 0 0 0 0 0 0 0 0 0 0 0 0 0 0 0 0 0 0 0 0 0 0 0 0 -0 -0 -0 0 0 0 -0 -0 0 0 0 0 0 0 0
0 0 0 0 0 0 0 0 0 0 0 0 0 0 0 0 0 0 0 0 0 0 0 0 0 0 0 0 -0 -0 -0 -0 -0 -0 0 0 0 0 0 0 0 0 0
0 0 0 0 0 0 0 0 0 0 0 0 0 0 0 0 0 0 0 0 0 0 0 0 0 0 0 0 -0 -0 -0 -0 -0 -0 0 0 0 0 0 -0 0 0 0
0 0 0 0 0 0 0 0 0 0 0 0 0 0 0 0 0 0 0 0 0 0 0 -0 0 0 0 0 0 -0 -0 -0 -0 -0 0 -0 -0 -0 0 -0 0 0 0
0 0 0 0 0 0 0 0 0 0 0 0 0 0 0 0 0 0 0 0 0 0 0 -0 0 0 -0 0 0 0 0 -0 -0 -0 -0 0 -0 -0 0 0 0 0 0
0 0 0 0 0 0 0 0 0 0 0 0 0 0 0 0 0 0 0 0 0 0 0 0 0 0 0 0 0 0 0 0 -0 -0 -0 -0 0 -0 -0 0 0 0 0
0 0 0 0 0 0 0 0 0 0 0 0 0 0 0 0 0 0 0 0 0 0 0 0 0 -0 -0 0 0 0 0 0 0 0 0 -0 -0 -0 -0 0 0 0 0
0 0 0 0 0 0 0 0 0 0 0 0 0 0 0 0 0 0 0 0 0 0 0 0 0 0 0 0 0 0 0 0 0 0 0 -0 -0 0 -0 0 0 0 0
0 0 0 0 0 0 0 0 0 0 0 0 0 0 0 0 0 0 0 0 0 0 0 0 0 0 0 0 0 0 0 0 0 0 0 0 0 0 0 -0 0 0 0
0 0 0 0 0 0 0 0 0 0 0 0 0 0 0 0 0 0 0 0 0 0 0 0 0 0 0 0 0 0 0 0 0 0 0 0 0 0 0 0 0 0 0
0 0 0 0 0 0 0 0 0 0 0 0 0 0 0 0 0 0 0 0 0 0 0 0 0 0 0 0 0 0 0 0 0 0 0 0 0 0 0 0 0 0 0
0 0 0 0 0 0 0 0 0 0 0 0 0 0 0 0 0 0 0 0 0 0 0 0 0 0 0 0 0 0 0 0 0 0 0 0 0 0 -0 0 0 0 0
0 0 0 0 0 0 0 0 0 0 0 0 0 0 0 0 0 0 0 0 0 0 0 0 0 0 0 0 0 0 0 0 0 0 0 0 0 0 0 0 0 0 0
0 0 0 0 0 0 0 0 0 0 0 0 0 0 0 0 0 0 0 0 0 0 0 0 0 0 0 0 0 0 0 0 0 0 0 0 0 0 0 0 0 0 0
0 0 0 0 0 0 0 0 0 0 0 0 0 0 0 0 0 0 0 0 0 0 0 0 0 0 0 0 0 0 0 0 0 0 0 0 0 0 0 0 0 0 0
0 0 0 0 0 0 0 0 0 0 0 0 0 0 0 0 0 0 0 0 0 0 0 0 0 0 0 0 0 0 0 0 0 0 0 0 0 0 0 0 0 0 0
0 0 0 0 0 0 0 0 0 0 0 0 0 0 0 0 0 0 0 0 0 0 0 0 0 0 0 0 0 0 0 0 0 0 0 0 0 0 0 0 0 0 0
0 0 0 0 0 0 0 0 0 0 0 0 0 0 0 0 0 0 0 0 0 0 0 0 0 0 0 0 0 0 0 0 0 0 0 0 0 0 0 0 0 0 0
0 0 0 0 0 0 0 0 0 0 0 0 0 0 0 0 0 0 0 0 0 0 0 0 0 0 0 0 0 0 0 0 0 0 0 0 0 0 0 0 0 0 0
0 0 0 0 0 0 0 0 0 0 0 0 0 0 0 0 0 0 0 0 0 0 0 0 0 0 0 0 0 0 0 0 0 0 0 0 0 0 0 0 0 0 0
0 0 0 0 0 0 0 0 0 0 0 0 0 0 0 0 0 0 0 0 0 0 0 0 0 0 0 0 0 0 0 0 0 0 0 0 0 0 0 0 0 0 0
0 0 0 0 0 0 0 0 0 0 0 0 0 0 0 0 0 0 0 0 0 0 0 0 0 0 0 0 0 0 0 0 0 0 0 0 0 0 0 0 0 0 0
0 0 0 0 0 0 0 0 0 0 0 0 0 0 0 0 0 -0 -0 -0 0 -0 -0 -0 -0 0 0 0 0 0 0 0 0 0 0 0 0 0 0 0 0 0 0
0 0 0 0 0 0 0 0 0 0 0 -0 0 -0 -0 0 0 0 -0 -0 -0 -0 -0 -0 -0 -0 0 0 0 0 0 0 0 0 0 0 0 0 0 0 0 0 0
0 0 0 0 0 0 0 0 0 0 -0 -0 -0 -0 -0 -0 0 0 0 0 0 0 -0 -0 -0 -0 0 0 0 0 0 0 0 0 0 0 0 0 0 0 0 0 0
0 0 0 0 0 0 0 0 0 0 0 0 -0 -0 -0 -0 -0 -0 0 0 0 0 0 0 0 -0 0 0 0 0 0 0 0 0 0 0 0 0 0 0 0 0 0
Wind_Speed_500mb
22 22 15 13 26 35 37 38 36 30 24 19 17 17 18 17 21 15 10 5 11 18 17 13 15 14 16 11 4 13 20 30 26 29 27 29 21 19 18 23 26 23 23
26 20 10 8 23 29 32 34 30 24 20 16 16 16 15 14 15 10 4 7 16 15 13 16 19 15 15 10 20 13 18 18 10 17 19 13 34 28 27 25 29 30 26
36 25 11 12 24 27 32 31 26 20 14 14 14 14 12 14 8 5 2 11 17 15 16 15 17 14 14 17 22 12 10 7 12 6 8 7 11 42 44 40 39 32 38
36 24 14 13 22 30 32 29 23 16 11 12 12 13 11 11 5 1 3 15 18 14 6 18 16 15 16 19 18 14 11 7 8 11 7 9 25 16 26 40 45 53 49
36 26 15 16 24 28 28 25 17 9 8 10 10 11 11 9 3 2 6 17 19 13 6 11 15 11 14 18 18 14 11 9 3 15 16 24 17 38 31 36 40 49 53
38 28 17 19 27 26 21 15 8 4 7 11 10 8 10 8 3 4 6 15 19 14 5 4 17 15 12 15 22 20 14 12 10 6 9 10 6 11 50 52 42 48 48
39 31 23 18 18 17 14 8 2 4 8 11 12 10 9 8 7 5 7 12 17 15 9 8 8 23 19 19 19 19 18 14 11 8 5 7 9 16 35 51 54 50 49
38 34 25 17 13 8 5 2 3 5 7 11 13 13 10 9 11 11 11 13 15 17 16 16 13 15 27 23 25 19 21 17 15 13 18 13 17 20 43 58 62 59 50
38 35 25 18 12 7 3 4 6 8 10 11 12 13 13 12 12 15 18 19 19 22 21 21 19 23 28 27 27 24 22 23 24 23 21 16 17 26 36 53 65 65 46
36 34 29 23 17 12 9 9 11 13 13 11 11 12 16 15 15 16 19 22 22 20 23 17 18 19 28 31 29 28 29 27 25 23 24 19 17 20 31 50 60 57 43
35 34 34 30 22 15 11 12 12 13 15 19 15 12 16 19 18 19 20 22 20 19 19 20 19 20 15 21 28 27 30 28 25 25 30 25 21 26 33 42 50 57 54
31 34 36 34 30 26 20 17 15 13 14 19 21 16 15 18 19 20 23 23 26 25 22 23 26 26 29 31 32 33 33 31 31 29 33 29 30 30 36 42 49 58 56
33 35 38 41 41 38 32 28 26 22 17 14 18 19 20 20 20 21 24 28 30 31 30 31 29 32 34 36 39 40 41 43 38 36 35 41 36 36 37 36 43 50 60
30 33 36 39 41 40 39 37 34 33 29 22 16 16 19 22 24 25 26 28 33 34 37 40 39 39 41 40 44 45 44 45 47 47 46 45 50 51 46 44 42 48 59
28 31 34 35 36 37 37 37 37 37 37 33 28 24 22 22 24 28 31 32 33 36 40 46 48 48 48 46 45 46 52 54 54 55 53 54 55 53 57 57 56 57 61
23 27 32 33 35 37 38 37 37 38 39 39 37 35 30 27 27 28 31 34 36 38 40 42 48 56 59 56 54 53 54 52 59 61 61 62 60 62 62 64 64 64 65
25 29 33 35 36 38 38 36 38 40 41 41 40 39 39 37 35 32 33 33 34 37 43 45 46 52 54 57 62 60 60 60 67 64 68 68 68 66 66 69 76 76 78
19 23 26 27 32 37 38 38 38 39 40 42 43 43 43 43 43 42 40 37 36 36 38 43 47 52 55 53 57 64 66 68 69 72 65 72 73 74 73 71 72 79 86
18 19 22 23 26 30 32 35 38 42 43 44 45 47 49 48 48 50 50 48 43 42 41 41 44 49 56 57 57 62 67 73 78 79 77 76 72 81 74 78 81 83 83
15 17 19 21 26 32 35 37 39 43 45 48 50 51 51 51 50 52 57 56 52 49 50 48 45 46 50 52 57 60 67 76 80 82 84 86 86 81 78 78 81 90 88
10 14 19 22 27 32 37 40 43 47 50 51 53 54 55 57 56 55 53 54 57 60 56 55 52 50 46 46 49 53 62 68 78 85 91 91 88 88 87 87 88 91 86
10 13 18 22 28 35 41 45 50 53 56 58 61 63 64 64 64 65 63 61 59 57 56 62 63 57 54 51 45 42 48 54 62 73 82 88 90 92 88 88 90 91 92
14 18 23 28 35 42 50 56 60 64 66 68 69 70 71 72 73 74 73 72 68 66 65 63 63 62 63 62 56 51 48 48 54 62 69 75 81 87 92 96 95 89 87
19 23 28 33 39 45 51 57 66 73 77 80 79 78 77 74 72 72 73 75 75 73 72 71 69 69 66 63 61 64 62 60 61 61 63 72 75 80 84 89 90 91 92
27 32 39 45 51 58 63 65 69 70 68 69 70 73 76 76 75 71 69 69 69 69 74 74 73 75 75 65 63 66 70 69 68 67 70 69 72 79 81 81 83 86 88
36 41 46 53 59 66 69 66 67 69 69 71 70 70 71 72 75 77 81 72 72 69 69 71 72 76 74 73 70 69 69 68 67 74 73 74 71 76 80 83 84 80 83
Wind_Direction_500mb
345 330 311 251 211 205 205 205 205 207 217 232 266 288 307 319 328 334 340 32 119 127 123 112 119 142 129 137 179 151 116 111 90 76 68 76 86 92 113 138 145 154 167
3 358 4 173 179 187 189 193 196 197 209 238 267 291 307 324 330 336 3 119 137 132 134 124 133 135 138 136 130 128 145 121 102 117 54 48 103 113 121 135 140 148 157
5 8 34 147 162 167 171 177 181 189 218 258 283 301 312 330 342 347 74 150 149 134 140 139 146 144 150 148 151 159 157 158 138 43 61 5 103 110 123 126 126 129 153
16 22 54 126 150 154 160 167 176 191 229 269 296 306 310 321 315 18 150 160 160 154 159 167 171 179 169 164 172 192 206 199 149 5 21 105 138 123 108 122 134 138 134
14 27 74 119 137 149 158 165 176 205 265 285 302 306 307 314 305 141 151 168 167 157 120 152 180 182 189 173 172 165 176 193 193 15 27 139 144 147 148 130 132 140 142
18 33 69 119 138 147 156 165 181 256 293 296 309 302 299 304 236 153 153 178 181 181 196 223 186 189 190 188 175 179 192 211 213 12 86 139 153 195 161 147 141 143 146
29 38 61 92 120 140 154 162 181 315 311 309 311 298 285 289 232 208 186 191 195 200 221 248 223 206 201 199 190 196 202 218 229 269 250 218 237 207 183 168 157 161 155
32 46 57 69 88 102 117 102 334 324 312 319 319 309 290 282 247 233 227 218 216 220 234 246 238 221 205 213 214 210 208 211 243 247 256 240 218 210 207 191 173 164 171
32 43 53 59 66 63 27 348 333 323 310 324 325 314 295 273 268 248 243 249 243 236 239 251 254 230 213 218 224 224 221 233 249 242 241 243 222 210 208 205 193 183 176
35 42 49 50 41 25 354 330 317 313 306 309 317 317 299 279 268 265 258 259 261 255 240 238 248 238 226 221 225 229 230 232 242 241 227 234 226 220 207 208 197 198 200
34 38 42 43 41 27 358 331 314 305 298 300 301 310 308 295 279 270 266 260 261 256 247 237 237 235 237 229 237 236 237 238 244 237 231 231 226 219 215 217 217 222 223
38 40 41 44 41 36 22 5 348 331 309 299 299 298 296 297 293 279 268 264 258 256 252 249 241 240 241 242 244 245 245 248 249 244 231 231 224 219 221 226 228 225 222
37 38 41 41 40 40 33 26 14 6 348 316 295 285 279 278 282 279 268 262 258 253 254 253 250 252 250 248 247 248 250 253 248 249 246 235 234 229 223 232 230 228 230
34 33 33 34 37 33 28 28 25 20 12 4 340 309 290 281 276 276 270 262 258 253 249 251 253 255 254 257 252 250 251 249 250 249 251 248 241 238 236 233 234 238 233
25 22 20 21 24 25 24 23 23 21 18 15 8 356 335 312 293 280 274 271 268 264 257 253 252 252 255 255 256 257 256 254 253 251 251 249 248 246 245 245 241 237 236
22 15 12 11 11 11 10 9 10 11 12 11 10 6 358 346 329 311 294 282 273 269 267 263 257 255 254 254 260 258 256 256 254 254 252 250 250 247 248 250 246 243 243
13 8 5 4 6 6 4 4 4 1 359 358 356 357 356 354 349 340 324 306 292 280 271 268 266 261 262 259 255 261 260 258 255 257 253 253 250 248 250 250 249 248 247
7 5 8 11 9 7 7 7 3 0 359 357 355 354 349 344 343 344 341 332 320 307 292 281 271 266 264 260 259 258 261 261 259 256 258 253 253 247 250 253 252 249 248
4 9 12 14 15 15 16 13 9 9 6 4 2 358 353 347 344 337 334 334 333 328 320 305 290 280 272 267 259 258 260 260 260 258 257 259 257 254 250 252 253 253 254
4 12 14 12 12 14 13 10 6 4 4 4 2 360 357 354 350 344 336 330 327 326 324 322 320 307 290 278 269 262 260 261 262 261 259 257 258 259 258 258 255 254 254
358 4 3 3 4 3 1 357 353 349 349 347 346 345 344 342 342 341 340 337 332 324 319 318 317 316 315 302 283 269 266 266 266 265 263 260 259 259 260 260 261 261 262
336 344 351 352 350 347 344 342 337 335 333 332 330 329 327 327 326 325 325 327 330 329 328 320 313 313 312 310 308 299 276 269 269 270 269 267 261 260 260 260 261 262 263
322 329 335 338 337 336 335 332 329 325 324 322 320 318 317 316 316 316 315 316 317 319 320 321 321 317 313 308 308 305 301 293 279 272 271 270 268 265 259 258 260 262 260
299 309 316 320 322 323 323 322 319 317 317 317 318 317 316 315 313 312 312 311 311 310 310 310 311 312 313 317 312 306 305 302 300 295 284 271 270 266 265 261 259 258 259
297 306 312 316 320 320 320 321 316 315 315 315 316 316 317 317 316 315 314 311 308 307 306 305 303 304 303 306 307 310 309 301 297 295 295 292 281 274 270 266 263 262 261
291 298 303 308 311 312 315 316 314 315 317 316 317 316 316 316 316 316 313 311 310 307 305 302 299 298 295 295 293 295 297 298 301 293 289 291 291 283 279 276 272 265 261
Wind_Speed_850mb
22 22 15 13 26 35 37 38 36 30 24 19 17 17 18 17 21 15 10 5 11 18 17 13 15 14 16 11 4 13 20 30 26 29 27 29 21 19 18 23 26 23 23
26 20 10 8 23 29 32 34 30 24 20 16 16 16 15 14 15 10 4 7 16 15 13 16 19 15 15 10 20 13 18 18 10 17 19 13 34 28 27 25 29 30 26
36 25 11 12 24 27 32 31 26 20 14 14 14 14 12 14 8 5 2 11 17 15 16 15 17 14 14 17 22 12 10 7 12 6 8 7 11 42 44 40 39 32 38
36 24 14 13 22 30 32 29 23 16 11 12 12 13 11 11 5 1 3 15 18 14 6 18 16 15 16 19 18 14 11 7 8 11 7 9 25 16 26 40 45 53 49
36 26 15 16 24 28 28 25 17 9 8 10 10 11 11 9 3 2 6 17 19 13 6 11 15 11 14 18 18 14 11 9 3 15 16 24 17 38 31 36 40 49 53
38 28 17 19 27 26 21 15 8 4 7 11 10 8 10 8 3 4 6 15 19 14 5 4 17 15 12 15 22 20 14 12 10 6 9 10 6 11 50 52 42 48 48
39 31 23 18 18 17 14 8 2 4 8 11 12 10 9 8 7 5 7 12 17 15 9 8 8 23 19 19 19 19 18 14 11 8 5 7 9 16 35 51 54 50 49
38 34 25 17 13 8 5 2 3 5 7 11 13 13 10 9 11 11 11 13 15 17 16 16 13 15 27 23 25 19 21 17 15 13 18 13 17 20 43 58 62 59 50
38 35 25 18 12 7 3 4 6 8 10 11 12 13 13 12 12 15 18 19 19 22 21 21 19 23 28 27 27 24 22 23 24 23 21 16 17 26 36 53 65 65 46
36 34 29 23 17 12 9 9 11 13 13 11 11 12 16 15 15 16 19 22 22 20 23 17 18 19 28 31 29 28 29 27 25 23 24 19 17 20 31 50 60 57 43
35 34 34 30 22 15 11 12 12 13 15 19 15 12 16 19 18 19 20 22 20 19 19 20 19 20 15 21 28 27 30 28 25 25 30 25 21 26 33 42 50 57 54
31 34 36 34 30 26 20 17 15 13 14 19 21 16 15 18 19 20 23 23 26 25 22 23 26 26 29 31 32 33 33 31 31 29 33 29 30 30 36 42 49 58 56
33 35 38 41 41 38 32 28 26 22 17 14 18 19 20 20 20 21 24 28 30 31 30 31 29 32 34 36 39 40 41 43 38 36 35 41 36 36 37 36 43 50 60
30 33 36 39 41 40 39 37 34 33 29 22 16 16 19 22 24 25 26 28 33 34 37 40 39 39 41 40 44 45 44 45 47 47 46 45 50 51 46 44 42 48 59
28 31 34 35 36 37 37 37 37 37 37 33 28 24 22 22 24 28 31 32 33 36 40 46 48 48 48 46 45 46 52 54 54 55 53 54 55 53 57 57 56 57 61
23 27 32 33 35 37 38 37 37 38 39 39 37 35 30 27 27 28 31 34 36 38 40 42 48 56 59 56 54 53 54 52 59 61 61 62 60 62 62 64 64 64 65
25 29 33 35 36 38 38 36 38 40 41 41 40 39 39 37 35 32 33 33 34 37 43 45 46 52 54 57 62 60 60 60 67 64 68 68 68 66 66 69 76 76 78
19 23 26 27 32 37 38 38 38 39 40 42 43 43 43 43 43 42 40 37 36 36 38 43 47 52 55 53 57 64 66 68 69 72 65 72 73 74 73 71 72 79 86
18 19 22 23 26 30 32 35 38 42 43 44 45 47 49 48 48 50 50 48 43 42 41 41 44 49 56 57 57 62 67 73 78 79 77 76 72 81 74 78 81 83 83
15 17 19 21 26 32 35 37 39 43 45 48 50 51 51 51 50 52 57 56 52 49 50 48 45 46 50 52 57 60 67 76 80 82 84 86 86 81 78 78 81 90 88
10 14 19 22 27 32 37 40 43 47 50 51 53 54 55 57 56 55 53 54 57 60 56 55 52 50 46 46 49 53 62 68 78 85 91 91 88 88 87 87 88 91 86
10 13 18 22 28 35 41 45 50 53 56 58 61 63 64 64 64 65 63 61 59 57 56 62 63 57 54 51 45 42 48 54 62 73 82 88 90 92 88 88 90 91 92
14 18 23 28 35 42 50 56 60 64 66 68 69 70 71 72 73 74 73 72 68 66 65 63 63 62 63 62 56 51 48 48 54 62 69 75 81 87 92 96 95 89 87
19 23 28 33 39 45 51 57 66 73 77 80 79 78 77 74 72 72 73 75 75 73 72 71 69 69 66 63 61 64 62 60 61 61 63 72 75 80 84 89 90 91 92
27 32 39 45 51 58 63 65 69 70 68 69 70 73 76 76 75 71 69 69 69 69 74 74 73 75 75 65 63 66 70 69 68 67 70 69 72 79 81 81 83 86 88
36 41 46 53 59 66 69 66 67 69 69 71 70 70 71 72 75 77 81 72 72 69 69 71 72 76 74 73 70 69 69 68 67 74 73 74 71 76 80 83 84 80 83
Wind_Direction_850mb
345 330 311 251 211 205 205 205 205 207 217 232 266 288 307 319 328 334 340 32 119 127 123 112 119 142 129 137 179 151 116 111 90 76 68 76 86 92 113 138 145 154 167
3 358 4 173 179 187 189 193 196 197 209 238 267 291 307 324 330 336 3 119 137 132 134 124 133 135 138 136 130 128 145 121 102 117 54 48 103 113 121 135 140 148 157
5 8 34 147 162 167 171 177 181 189 218 258 283 301 312 330 342 347 74 150 149 134 140 139 146 144 150 148 151 159 157 158 138 43 61 5 103 110 123 126 126 129 153
16 22 54 126 150 154 160 167 176 191 229 269 296 306 310 321 315 18 150 160 160 154 159 167 171 179 169 164 172 192 206 199 149 5 21 105 138 123 108 122 134 138 134
14 27 74 119 137 149 158 165 176 205 265 285 302 306 307 314 305 141 151 168 167 157 120 152 180 182 189 173 172 165 176 193 193 15 27 139 144 147 148 130 132 140 142
18 33 69 119 138 147 156 165 181 256 293 296 309 302 299 304 236 153 153 178 181 181 196 223 186 189 190 188 175 179 192 211 213 12 86 139 153 195 161 147 141 143 146
29 38 61 92 120 140 154 162 181 315 311 309 311 298 285 289 232 208 186 191 195 200 221 248 223 206 201 199 190 196 202 218 229 269 250 218 237 207 183 168 157 161 155
32 46 57 69 88 102 117 102 334 324 312 319 319 309 290 282 247 233 227 218 216 220 234 246 238 221 205 213 214 210 208 211 243 247 256 240 218 210 207 191 173 164 171
32 43 53 59 66 63 27 348 333 323 310 324 325 314 295 273 268 248 243 249 243 236 239 251 254 230 213 218 224 224 221 233 249 242 241 243 222 210 208 205 193 183 176
35 42 49 50 41 25 354 330 317 313 306 309 317 317 299 279 268 265 258 259 261 255 240 238 248 238 226 221 225 229 230 232 242 241 227 234 226 220 207 208 197 198 200
34 38 42 43 41 27 358 331 314 305 298 300 301 310 308 295 279 270 266 260 261 256 247 237 237 235 237 229 237 236 237 238 244 237 231 231 226 219 215 217 217 222 223
38 40 41 44 41 36 22 5 348 331 309 299 299 298 296 297 293 279 268 264 258 256 252 249 241 240 241 242 244 245 245 248 249 244 231 231 224 219 221 226 228 225 222
37 38 41 41 40 40 33 26 14 6 348 316 295 285 279 278 282 279 268 262 258 253 254 253 250 252 250 248 247 248 250 253 248 249 246 235 234 229 223 232 230 228 230
34 33 33 34 37 33 28 28 25 20 12 4 340 309 290 281 276 276 270 262 258 253 249 251 253 255 254 257 252 250 251 249 250 249 251 248 241 238 236 233 234 238 233
25 22 20 21 24 25 24 23 23 21 18 15 8 356 335 312 293 280 274 271 268 264 257 253 252 252 255 255 256 257 256 254 253 251 251 249 248 246 245 245 241 237 236
22 15 12 11 11 11 10 9 10 11 12 11 10 6 358 346 329 311 294 282 273 269 267 263 257 255 254 254 260 258 256 256 254 254 252 250 250 247 248 250 246 243 243
13 8 5 4 6 6 4 4 4 1 359 358 356 357 356 354 349 340 324 306 292 280 271 268 266 261 262 259 255 261 260 258 255 257 253 253 250 248 250 250 249 248 247
7 5 8 11 9 7 7 7 3 0 359 357 355 354 349 344 343 344 341 332 320 307 292 281 271 266 264 260 259 258 261 261 259 256 258 253 253 247 250 253 252 249 248
4 9 12 14 15 15 16 13 9 9 6 4 2 358 353 347 344 337 334 334 333 328 320 305 290 280 272 267 259 258 260 260 260 258 257 259 257 254 250 252 253 253 254
4 12 14 12 12 14 13 10 6 4 4 4 2 360 357 354 350 344 336 330 327 326 324 322 320 307 290 278 269 262 260 261 262 261 259 257 258 259 258 258 255 254 254
358 4 3 3 4 3 1 357 353 349 349 347 346 345 344 342 342 341 340 337 332 324 319 318 317 316 315 302 283 269 266 266 266 265 263 260 259 259 260 260 261 261 262
336 344 351 352 350 347 344 342 337 335 333 332 330 329 327 327 326 325 325 327 330 329 328 320 313 313 312 310 308 299 276 269 269 270 269 267 261 260 260 260 261 262 263
322 329 335 338 337 336 335 332 329 325 324 322 320 318 317 316 316 316 315 316 317 319 320 321 321 317 313 308 308 305 301 293 279 272 271 270 268 265 259 258 260 262 260
299 309 316 320 322 323 323 322 319 317 317 317 318 317 316 315 313 312 312 311 311 310 310 310 311 312 313 317 312 306 305 302 300 295 284 271 270 266 265 261 259 258 259
297 306 312 316 320 320 320 321 316 315 315 315 316 316 317 317 316 315 314 311 308 307 306 305 303 304 303 306 307 310 309 301 297 295 295 292 281 274 270 266 263 262 261
291 298 303 308 311 312 315 316 314 315 317 316 317 316 316 316 316 316 313 311 310 307 305 302 299 298 295 295 293 295 297 298 301 293 289 291 291 283 279 276 272 265 261